Weather History for KHFJ - June, 2013

Change the Weather History Date:

Friday, June 28, 2013

  Actual Average (KJLN) Record (KJLN)
Temperature  
Mean Temperature 78 °F 79 °F  
Max Temperature 87 °F 89 °F 102 °F (2012)
Min Temperature 69 °F 68 °F 50 °F (1967)
Degree Days  
Heating Degree Days 0 0  
Month to date heating degree days 2  
Since 1 June heating degree days 2  
Since 1 July heating degree days 4071  
Cooling Degree Days 13 14  
Month to date cooling degree days 291  
Year to date cooling degree days 471  
Since 1 June cooling degree days 291  
Growing Degree Days 28 (Base 50)    
Moisture  
Dew Point 65 °F    
Average Humidity 66    
Maximum Humidity 100    
Minimum Humidity 43    
Precipitation  
Precipitation 0.00 in 0.17 in 2.85 in (1999)
Month to date precipitation 5.53  
Year to date precipitation 23.48  
Sea Level Pressure  
Sea Level Pressure 29.91 in    
Wind  
Wind Speed 7 mph (NNW)    
Max Wind Speed 17 mph    
Max Gust Speed 25 mph    
Visibility 10 miles    
Events Rain , Thunderstorm    
T = Trace of Precipitation, MM = Missing Value Source: NWS Daily Summary

Daily Weather History Graph

Daily Weather History Graph

Search for Another Location

Airport or City:

Trip Planner

Search our weather history database for the weather conditions in past years. The results will help you decide how hot, cold, wet, or windy it might be!

Date:

Astronomy

Jun. 28, 2013 Rise Set
Actual Time 5:59 AM CDT 8:39 PM CDT
Civil Twilight 5:28 AM CDT 9:10 PM CDT
Nautical Twilight 4:50 AM CDT 9:48 PM CDT
Astronomical Twilight 4:07 AM CDT 10:31 PM CDT
Moon No Moon Rise 11:58 AM CDT (6/28)
Length of Visible Light 15h 41m
Length of Day
14h 40m
Waning Gibbous, 66% of the Moon is Illuminated
Jun 28
Waning Gibbous
Jun 29
Last Quarter
Jul 8
New
Jul 15
First Quarter
Jul 22
Full

Hourly Weather History & Observations

Time (CDT) Temp. Heat Index Dew Point Humidity Pressure Visibility Wind Dir Wind Speed Gust Speed Precip Events Conditions
12:15 AM 80.6 °F 84.6 °F 71.6 °F 74% 29.91 in 10.0 mi SSW 5.8 mph - N/A   Clear
12:35 AM 80.6 °F 85.4 °F 73.4 °F 79% 29.91 in 10.0 mi South 5.8 mph - N/A   Clear
12:55 AM 80.6 °F 85.4 °F 73.4 °F 79% 29.88 in 10.0 mi SSE 8.1 mph - N/A   Clear
1:15 AM 80.6 °F 85.4 °F 73.4 °F 79% 29.90 in 10.0 mi West 9.2 mph - N/A   Scattered Clouds
1:35 AM 80.6 °F 84.6 °F 71.6 °F 74% 29.90 in 10.0 mi NNW 9.2 mph 20.7 mph N/A Thunderstorm Mostly Cloudy
1:55 AM 78.8 °F - 68.0 °F 69% 29.86 in 10.0 mi Calm Calm - N/A Thunderstorm Scattered Clouds
2:15 AM 77.0 °F - 64.4 °F 65% 29.91 in 10.0 mi North 13.8 mph 23.0 mph N/A   Clear
2:35 AM 75.2 °F - 64.4 °F 69% 29.89 in 10.0 mi Calm Calm - N/A   Clear
2:55 AM 73.4 °F - 64.4 °F 73% 29.91 in 10.0 mi North 5.8 mph - N/A   Clear
3:15 AM 73.4 °F - 64.4 °F 73% 29.91 in 10.0 mi West 3.5 mph - N/A   Clear
3:35 AM 71.6 °F - 64.4 °F 78% 29.91 in 10.0 mi NW 4.6 mph - N/A Rain Light Rain
3:55 AM 71.6 °F - 66.2 °F 83% 29.91 in 10.0 mi North 6.9 mph - N/A   Clear
4:15 AM 69.8 °F - 68.0 °F 94% 29.91 in 10.0 mi North 10.4 mph - N/A   Clear
4:35 AM 69.8 °F - 68.0 °F 94% 29.91 in 10.0 mi North 6.9 mph - N/A   Clear
4:55 AM 69.8 °F - 68.0 °F 94% 29.90 in 10.0 mi Calm Calm - N/A   Clear
5:15 AM 69.8 °F - 68.0 °F 94% 29.91 in 10.0 mi Calm Calm - N/A   Clear
5:35 AM 69.8 °F - 69.8 °F 100% 29.91 in 10.0 mi North 4.6 mph - N/A   Clear
5:55 AM 69.8 °F - 69.8 °F 100% 29.90 in 10.0 mi North 6.9 mph - N/A   Clear
6:15 AM 69.8 °F - 69.8 °F 100% 29.91 in 7.0 mi North 6.9 mph - N/A   Clear
6:35 AM 69.8 °F - 69.8 °F 100% 29.91 in 7.0 mi North 5.8 mph - N/A   Scattered Clouds
6:55 AM 69.8 °F - 69.8 °F 100% 29.93 in 7.0 mi NNW 5.8 mph - N/A   Scattered Clouds
7:55 AM 71.6 °F - 69.8 °F 94% 29.96 in 10.0 mi NNW 5.8 mph - N/A   Mostly Cloudy
8:15 AM 71.6 °F - 68.0 °F 88% 29.96 in 10.0 mi Calm Calm - N/A   Scattered Clouds
8:35 AM 73.4 °F - 69.8 °F 88% 29.96 in 10.0 mi NNW 4.6 mph - N/A   Clear
8:55 AM 77.0 °F - 68.0 °F 74% 29.96 in 10.0 mi NNW 5.8 mph - N/A   Clear
9:15 AM 77.0 °F - 68.0 °F 74% 29.97 in 10.0 mi North 8.1 mph - N/A   Clear
9:35 AM 77.0 °F - 68.0 °F 74% 29.96 in 10.0 mi NNE 4.6 mph - N/A   Clear
9:55 AM 78.8 °F - 68.0 °F 69% 29.96 in 10.0 mi North 6.9 mph - N/A   Clear
10:15 AM 80.6 °F 83.2 °F 68.0 °F 65% 29.97 in 10.0 mi North 6.9 mph - N/A   Clear
10:35 AM 80.6 °F 83.9 °F 69.8 °F 70% 29.97 in 10.0 mi NNW 9.2 mph - N/A   Clear
10:55 AM 80.6 °F 83.9 °F 69.8 °F 70% 29.97 in 10.0 mi NNW 9.2 mph - N/A   Scattered Clouds
11:15 AM 80.6 °F 83.2 °F 68.0 °F 65% 29.97 in 10.0 mi North 8.1 mph - N/A   Scattered Clouds
11:35 AM 82.4 °F 86.3 °F 69.8 °F 66% 29.98 in 10.0 mi NNW 9.2 mph - N/A   Clear
11:55 AM 82.4 °F 85.4 °F 68.0 °F 62% 29.97 in 10.0 mi NNW 6.9 mph - N/A   Clear
12:15 PM 82.4 °F 85.4 °F 68.0 °F 62% 29.97 in 10.0 mi NNW 3.5 mph - N/A   Clear
12:35 PM 86.0 °F 88.2 °F 66.2 °F 51% 29.98 in 10.0 mi NNW 4.6 mph - N/A   Clear
12:55 PM 84.2 °F 85.6 °F 64.4 °F 51% 29.96 in 10.0 mi NW 8.1 mph - N/A   Clear
1:15 PM 86.0 °F 87.3 °F 64.4 °F 48% 29.95 in 10.0 mi West 5.8 mph - N/A   Clear
1:35 PM 86.0 °F 87.3 °F 64.4 °F 48% 29.94 in 10.0 mi WNW 6.9 mph - N/A   Clear
1:55 PM 87.8 °F 88.5 °F 62.6 °F 43% 29.94 in 10.0 mi NW 8.1 mph - N/A   Scattered Clouds
2:15 PM 87.8 °F 88.5 °F 62.6 °F 43% 29.93 in 10.0 mi NW 8.1 mph - N/A   Clear
2:35 PM 87.8 °F 88.5 °F 62.6 °F 43% 29.92 in 10.0 mi NNW 12.7 mph 17.3 mph N/A   Clear
2:55 PM 87.8 °F 88.5 °F 62.6 °F 43% 29.92 in 10.0 mi NW 11.5 mph - N/A   Scattered Clouds
3:15 PM 86.0 °F 86.6 °F 62.6 °F 45% 29.92 in 10.0 mi NW 11.5 mph - N/A   Mostly Cloudy
3:55 PM 86.0 °F 86.6 °F 62.6 °F 45% 29.91 in 10.0 mi NW 12.7 mph 25.3 mph N/A   Mostly Cloudy
4:15 PM 87.8 °F 89.4 °F 64.4 °F 46% 29.90 in 10.0 mi NW 12.7 mph 17.3 mph N/A   Mostly Cloudy
4:35 PM 87.8 °F 89.4 °F 64.4 °F 46% 29.89 in 10.0 mi NW 12.7 mph 18.4 mph N/A   Scattered Clouds
4:55 PM 86.0 °F 87.3 °F 64.4 °F 48% 29.89 in 10.0 mi WNW 17.3 mph 21.9 mph N/A   Clear
5:15 PM 86.0 °F 88.2 °F 66.2 °F 51% 29.89 in 10.0 mi NW 13.8 mph 20.7 mph N/A   Clear
5:35 PM 86.0 °F 87.3 °F 64.4 °F 48% 29.89 in 10.0 mi NW 11.5 mph 16.1 mph N/A   Clear
5:55 PM 86.0 °F 87.3 °F 64.4 °F 48% 29.88 in 10.0 mi NW 15.0 mph 21.9 mph N/A   Clear
6:15 PM 82.4 °F 83.9 °F 64.4 °F 54% 29.88 in 10.0 mi NNW 12.7 mph 18.4 mph N/A   Scattered Clouds
6:35 PM 86.0 °F 86.6 °F 62.6 °F 45% 29.88 in 10.0 mi NNW 13.8 mph - N/A   Scattered Clouds
6:55 PM 84.2 °F 84.4 °F 60.8 °F 45% 29.88 in 10.0 mi NNW 10.4 mph - N/A   Clear
7:15 PM 84.2 °F 84.4 °F 60.8 °F 45% 29.87 in 10.0 mi NNW 10.4 mph - N/A   Clear
7:35 PM 82.4 °F 83.4 °F 62.6 °F 51% 29.88 in 10.0 mi North 5.8 mph - N/A   Clear
7:55 PM 80.6 °F 81.8 °F 62.6 °F 54% 29.88 in 10.0 mi North 5.8 mph - N/A   Clear
8:15 PM 78.8 °F - 62.6 °F 57% 29.88 in 10.0 mi NNW 6.9 mph - N/A   Clear
8:35 PM 78.8 °F - 60.8 °F 54% 29.87 in 10.0 mi NNW 5.8 mph - N/A   Clear
8:55 PM 75.2 °F - 60.8 °F 61% 29.88 in 10.0 mi North 5.8 mph - N/A   Clear
9:15 PM 75.2 °F - 59.0 °F 57% 29.87 in 10.0 mi North 6.9 mph - N/A   Clear
9:35 PM 73.4 °F - 59.0 °F 61% 29.88 in 10.0 mi NNW 8.1 mph - N/A   Clear
9:55 PM 73.4 °F - 57.2 °F 57% 29.88 in 10.0 mi North 5.8 mph - N/A   Clear
10:15 PM 73.4 °F - 55.4 °F 53% 29.89 in 10.0 mi NNW 5.8 mph - N/A   Clear
10:35 PM 71.6 °F - 55.4 °F 57% 29.89 in 10.0 mi NNW 5.8 mph - N/A   Clear
10:55 PM 71.6 °F - 55.4 °F 57% 29.89 in 10.0 mi NNW 4.6 mph - N/A   Clear
11:15 PM 71.6 °F - 55.4 °F 57% 29.90 in 10.0 mi NNW 4.6 mph - N/A   Clear
11:35 PM 71.6 °F - 55.4 °F 57% 29.89 in 10.0 mi NNW 4.6 mph - N/A   Clear
11:55 PM 69.8 °F - 55.4 °F 60% 29.89 in 10.0 mi NW 4.6 mph - N/A   Clear